Location: Glen Waverley
(37.8830°S, 145.1670°E)
Time: 18:46:00
(UTC+10:00)

ISS - Visible Passes

Search period start: 15 May 2021 00:00
Search period end: 25 May 2021 00:00
Orbit: 417 x 422 km, 51.6° (Epoch: 15 May)

Date Brightness Start Highest point End Pass type
(mag) Time Alt. Az. Time Alt. Az. Time Alt. Az.
18 May -0.5 06:45:51 10° N 06:48:07 17° NE 06:50:24 10° E visible
20 May -2.8 06:46:24 10° NW 06:49:43 54° NE 06:53:06 10° ESE visible
21 May -1.7 05:59:21 10° NNW 06:02:21 29° NE 06:05:24 10° ESE visible
22 May -0.9 05:12:48 10° N 05:15:02 17° NE 05:17:20 10° E visible
23 May -3.8 06:01:46 19° NW 06:04:04 82° SW 06:07:31 10° SE visible
24 May -2.7 05:17:15 45° E 05:17:15 45° E 05:20:00 10° ESE visible
24 May -2.2 06:50:57 10° WSW 06:53:39 21° SSW 06:56:20 10° SSE visible
